VU3KEB-13 Weather Reports


time (UTC)temp
F
wind
direction
speed
knots
gust
knots
rain 1hr
in
rain 24hr
in
rain mn
in
humidity
%
barometer
mb
20260504211948 93 0 0.0 0.0 0.00 0.00 0.00 43 920.0
20260504211448 93 0 0.0 0.0 0.00 0.00 0.00 43 920.1
20260504210948 93 0 0.0 0.0 0.00 0.00 0.00 43 920.2
20260504210448 93 0 0.0 0.0 0.00 0.00 0.00 43 920.4
20260504205947 93 0 0.0 0.0 0.00 0.00 0.00 43 920.4
20260504205445 93 0 0.0 0.0 0.00 0.00 0.00 43 920.3
20260504204944 93 0 0.0 0.0 0.00 0.00 0.00 43 920.1
20260504204443 93 0 0.0 0.0 0.00 0.00 0.00 43 920.0
20260504203943 93 0 0.0 0.0 0.00 0.00 0.00 43 919.9
20260504203441 93 0 0.0 0.0 0.00 0.00 0.00 43 919.9
20260504202940 93 0 0.0 0.0 0.00 0.00 0.00 43 919.8
20260504202440 93 0 0.0 0.0 0.00 0.00 0.00 43 919.7
20260504201939 93 0 0.0 0.0 0.00 0.00 0.00 43 919.6
20260504201439 93 0 0.0 0.0 0.00 0.00 0.00 43 919.6
20260504200938 93 0 0.0 0.0 0.00 0.00 0.00 43 919.5
20260504200438 93 0 0.0 0.0 0.00 0.00 0.00 43 919.5
20260504195938 93 0 0.0 0.0 0.00 0.00 0.00 43 919.5
20260504195437 93 0 0.0 0.0 0.00 0.00 0.00 43 919.6
20260504194936 93 0 0.0 0.0 0.00 0.00 0.00 43 919.7
20260504194436 93 0 0.0 0.0 0.00 0.00 0.00 43 919.9
20260504193935 93 0 0.0 0.0 0.00 0.00 0.00 43 919.9
20260504193434 93 0 0.0 0.0 0.00 0.00 0.00 43 920.0
20260504192933 93 0 0.0 0.0 0.00 0.00 0.00 43 920.0
20260504192432 93 0 0.0 0.0 0.00 0.00 0.00 43 920.0
20260504191931 93 0 0.0 0.0 0.00 0.00 0.00 43 920.0
20260504191430 93 0 0.0 0.0 0.00 0.00 0.00 43 920.2
20260504190930 93 0 0.0 0.0 0.00 0.00 0.00 43 920.2
20260504190429 93 0 0.0 0.0 0.00 0.00 0.00 43 920.2
20260504185928 93 0 0.0 0.0 0.00 0.00 0.00 43 920.2
20260504185428 93 0 0.0 0.0 0.00 0.00 0.00 43 920.2
20260504184928 93 0 0.0 0.0 0.00 0.00 0.00 43 920.2
20260504184428 93 0 0.0 0.0 0.00 0.00 0.00 43 920.2
20260504183928 93 0 0.0 0.0 0.00 0.00 0.00 43 920.3
20260504183428 93 0 0.0 0.0 0.00 0.00 0.00 43 920.5
20260504182928 93 0 0.0 0.0 0.00 0.00 0.00 43 920.6
20260504182428 93 0 0.0 0.0 0.00 0.00 0.00 42 920.7
20260504181928 93 0 0.0 0.0 0.00 0.00 0.00 42 920.7
20260504181428 93 0 0.0 0.0 0.00 0.00 0.00 42 920.8
20260504180928 93 0 0.0 0.0 0.00 0.00 0.00 42 920.8
20260504180428 94 0 0.0 0.0 0.00 0.00 0.00 42 920.9
20260504175928 93 0 0.0 0.0 0.00 0.00 0.00 42 920.9
20260504175428 93 0 0.0 0.0 0.00 0.00 0.00 42 920.8
20260504174928 93 0 0.0 0.0 0.00 0.00 0.00 42 920.8
20260504174428 93 0 0.0 0.0 0.00 0.00 0.00 42 920.9
20260504173928 93 0 0.0 0.0 0.00 0.00 0.00 42 920.9
20260504173428 93 0 0.0 0.0 0.00 0.00 0.00 42 920.8
20260504172928 93 0 0.0 0.0 0.00 0.00 0.00 42 920.8
20260504172428 93 0 0.0 0.0 0.00 0.00 0.00 42 920.9
20260504171928 93 0 0.0 0.0 0.00 0.00 0.00 42 920.9
20260504171428 93 0 0.0 0.0 0.00 0.00 0.00 42 920.7
20260504170928 93 0 0.0 0.0 0.00 0.00 0.00 42 920.4
20260504170428 93 0 0.0 0.0 0.00 0.00 0.00 42 920.3
20260504160419 94 0 0.0 0.0 0.00 0.00 0.00 41 920.1
20260504150909 94 0 0.0 0.0 0.00 0.00 0.00 41 920.0
20260504150408 94 0 0.0 0.0 0.00 0.00 0.00 41 919.9
20260504140908 94 0 0.0 0.0 0.00 0.00 0.00 40 919.2
20260504140408 94 0 0.0 0.0 0.00 0.00 0.00 40 919.2
20260504130406 94 0 0.0 0.0 0.00 0.00 0.00 38 917.9
20260504110357 94 0 0.0 0.0 0.00 0.00 0.00 37 916.4
20260504100347 93 0 0.0 0.0 0.00 0.00 0.00 40 916.9
20260504081846 94 0 0.0 0.0 0.00 0.00 0.00 36 918.2
20260504081346 94 0 0.0 0.0 0.00 0.00 0.00 36 918.3
20260504080846 93 0 0.0 0.0 0.00 0.00 0.00 37 918.5
20260504080346 94 0 0.0 0.0 0.00 0.00 0.00 37 918.7
20260504070346 93 0 0.0 0.0 0.00 0.00 0.00 39 920.2
20260504050345 93 0 0.0 0.0 0.00 0.00 0.00 44 921.6
20260504045844 93 0 0.0 0.0 0.00 0.00 0.00 44 921.6
20260504045343 93 0 0.0 0.0 0.00 0.00 0.00 45 921.7
20260504044842 93 0 0.0 0.0 0.00 0.00 0.00 45 921.7
20260504044342 93 0 0.0 0.0 0.00 0.00 0.00 45 921.6
20260504043841 93 0 0.0 0.0 0.00 0.00 0.00 45 921.7
20260504043340 93 0 0.0 0.0 0.00 0.00 0.00 45 921.7
20260504042839 93 0 0.0 0.0 0.00 0.00 0.00 45 921.7
20260504042338 93 0 0.0 0.0 0.00 0.00 0.00 46 921.8
20260504041837 93 0 0.0 0.0 0.00 0.00 0.00 46 921.8
20260504041336 93 0 0.0 0.0 0.00 0.00 0.00 46 921.7
20260504040835 93 0 0.0 0.0 0.00 0.00 0.00 46 921.8
20260504040334 93 0 0.0 0.0 0.00 0.00 0.00 46 921.8
20260504035833 93 0 0.0 0.0 0.00 0.00 0.00 46 921.8
20260504035332 93 0 0.0 0.0 0.00 0.00 0.00 46 921.8
20260504034832 93 0 0.0 0.0 0.00 0.00 0.00 46 921.8
20260504034331 93 0 0.0 0.0 0.00 0.00 0.00 46 921.7
20260504033830 93 0 0.0 0.0 0.00 0.00 0.00 47 921.7
20260504033329 93 0 0.0 0.0 0.00 0.00 0.00 47 921.6
20260504032828 93 0 0.0 0.0 0.00 0.00 0.00 47 921.6
20260504032327 93 0 0.0 0.0 0.00 0.00 0.00 47 921.6
20260504031826 93 0 0.0 0.0 0.00 0.00 0.00 47 921.6
20260504031326 93 0 0.0 0.0 0.00 0.00 0.00 47 921.5
20260504030826 93 0 0.0 0.0 0.00 0.00 0.00 47 921.4
20260504030326 93 0 0.0 0.0 0.00 0.00 0.00 47 921.5
20260504025826 93 0 0.0 0.0 0.00 0.00 0.00 47 921.5
20260504025326 93 0 0.0 0.0 0.00 0.00 0.00 47 921.5
20260504024826 93 0 0.0 0.0 0.00 0.00 0.00 47 921.4
20260504024326 93 0 0.0 0.0 0.00 0.00 0.00 47 921.2
20260504023826 93 0 0.0 0.0 0.00 0.00 0.00 46 921.2
20260504023326 93 0 0.0 0.0 0.00 0.00 0.00 47 921.1
20260504022825 93 0 0.0 0.0 0.00 0.00 0.00 47 921.1
20260504022325 93 0 0.0 0.0 0.00 0.00 0.00 46 921.2
20260504021826 93 0 0.0 0.0 0.00 0.00 0.00 46 921.3
20260504021325 93 0 0.0 0.0 0.00 0.00 0.00 46 921.2
20260504020825 93 0 0.0 0.0 0.00 0.00 0.00 45 921.2
20260504020325 93 0 0.0 0.0 0.00 0.00 0.00 45 921.1
20260504015825 93 0 0.0 0.0 0.00 0.00 0.00 45 921.0
20260504015325 93 0 0.0 0.0 0.00 0.00 0.00 45 920.9
20260504014825 93 0 0.0 0.0 0.00 0.00 0.00 45 920.9
20260504014325 93 0 0.0 0.0 0.00 0.00 0.00 44 920.8
20260504013825 93 0 0.0 0.0 0.00 0.00 0.00 44 920.8
20260504013325 93 0 0.0 0.0 0.00 0.00 0.00 44 920.9
20260504012825 93 0 0.0 0.0 0.00 0.00 0.00 44 920.9
20260504012324 93 0 0.0 0.0 0.00 0.00 0.00 44 920.8
20260504011824 93 0 0.0 0.0 0.00 0.00 0.00 44 920.9
20260504011323 93 0 0.0 0.0 0.00 0.00 0.00 45 920.9
20260504010823 93 0 0.0 0.0 0.00 0.00 0.00 46 920.9
20260504010322 93 0 0.0 0.0 0.00 0.00 0.00 46 921.1
20260504005821 93 0 0.0 0.0 0.00 0.00 0.00 46 921.0
20260504005321 93 0 0.0 0.0 0.00 0.00 0.00 46 921.0
20260504004820 93 0 0.0 0.0 0.00 0.00 0.00 46 920.9
20260504004319 93 0 0.0 0.0 0.00 0.00 0.00 46 921.1
20260504003818 93 0 0.0 0.0 0.00 0.00 0.00 46 921.1
20260504003317 93 0 0.0 0.0 0.00 0.00 0.00 46 921.0
20260504002816 93 0 0.0 0.0 0.00 0.00 0.00 47 921.0
20260504002315 93 0 0.0 0.0 0.00 0.00 0.00 47 920.9
20260504001814 93 0 0.0 0.0 0.00 0.00 0.00 47 920.7
20260504001313 93 0 0.0 0.0 0.00 0.00 0.00 47 920.8
20260504000813 93 0 0.0 0.0 0.00 0.00 0.00 47 920.7
20260504000312 93 0 0.0 0.0 0.00 0.00 0.00 47 920.5
20260503235811 93 0 0.0 0.0 0.00 0.00 0.00 47 920.3
20260503235310 93 0 0.0 0.0 0.00 0.00 0.00 47 920.3
20260503234809 93 0 0.0 0.0 0.00 0.00 0.00 47 920.3
20260503234308 93 0 0.0 0.0 0.00 0.00 0.00 47 920.3
20260503233807 93 0 0.0 0.0 0.00 0.00 0.00 47 920.4
20260503233306 93 0 0.0 0.0 0.00 0.00 0.00 47 920.3
20260503232806 93 0 0.0 0.0 0.00 0.00 0.00 47 920.1
20260503232306 93 0 0.0 0.0 0.00 0.00 0.00 47 920.0
20260503231806 93 0 0.0 0.0 0.00 0.00 0.00 47 920.0
20260503231306 93 0 0.0 0.0 0.00 0.00 0.00 47 920.0
20260503230806 93 0 0.0 0.0 0.00 0.00 0.00 47 920.1
20260503230306 93 0 0.0 0.0 0.00 0.00 0.00 47 920.1
20260503225806 93 0 0.0 0.0 0.00 0.00 0.00 47 920.0
20260503225306 94 0 0.0 0.0 0.00 0.00 0.00 47 919.9
20260503224806 93 0 0.0 0.0 0.00 0.00 0.00 47 919.8
20260503224306 93 0 0.0 0.0 0.00 0.00 0.00 47 919.6
20260503223806 93 0 0.0 0.0 0.00 0.00 0.00 47 919.6
20260503223306 93 0 0.0 0.0 0.00 0.00 0.00 46 919.5
20260503222806 93 0 0.0 0.0 0.00 0.00 0.00 46 919.4
20260503222305 93 0 0.0 0.0 0.00 0.00 0.00 46 919.4
20260503221805 93 0 0.0 0.0 0.00 0.00 0.00 46 919.3
20260503221305 93 0 0.0 0.0 0.00 0.00 0.00 46 919.2
20260503220805 93 0 0.0 0.0 0.00 0.00 0.00 46 919.0
20260503220305 93 0 0.0 0.0 0.00 0.00 0.00 46 919.0
20260503215805 94 0 0.0 0.0 0.00 0.00 0.00 46 919.1
20260503215305 94 0 0.0 0.0 0.00 0.00 0.00 46 919.0
20260503214805 93 0 0.0 0.0 0.00 0.00 0.00 46 918.9
20260503214305 93 0 0.0 0.0 0.00 0.00 0.00 46 918.7
20260503213805 94 0 0.0 0.0 0.00 0.00 0.00 46 918.7
20260503213305 94 0 0.0 0.0 0.00 0.00 0.00 46 918.6
20260503212805 94 0 0.0 0.0 0.00 0.00 0.00 46 918.7
20260503212305 94 0 0.0 0.0 0.00 0.00 0.00 46 918.9